Regional Weather Roundup
Issued by NWS State College, PA

Home | Current Version | Previous Version | Text Only | Print | Product List | Glossary On
Versions: 1 2 3 4 5 6 7 8 9 10 11 12 13 14 15 16 17 18 19 20 21 22 23 24 25 26 27 28 29 30 31 32 33 34 35 36 37 38 39 40 41 42 43 44 45 46 47 48 49 50
000
ASUS41 KCTP 311210
RWRCTP

REGIONAL WEATHER ROUNDUP
NATIONAL WEATHER SERVICE STATE COLLEGE PA
800 AM EDT TUE MAY 31 2016

Note: "fair" indicates few or no clouds below 12,000 feet with no
significant weather and/or obstructions to visibility.

* = STATION THAT DOES NOT REPORT PRECIPITATION /E.G. RAIN...SNOW...ETC/
    THUNDER OR FOG.

PAZ002>004-007>009-013>016-020>023-029>032-311300-
WESTERN PENNSYLVANIA

CITY           SKY/WX    TMP DP  RH WIND       PRES   REMARKS
ERIE           SUNNY     68  57  68 SE3       30.02S
MEADVILLE      PTSUNNY   66  54  65 S3        30.03S
FRANKLIN*      SUNNY     63  55  77 SE3       30.06S
NEW CASTLE     FAIR      61  58  90 CALM      30.04R
BEAVER COUNTY  MOSUNNY   66  57  72 CALM      30.03R
BUTLER*        SUNNY     63  57  82 CALM      30.07R
PITTSBURGH INT MOSUNNY   66  57  72 CALM      30.02R
PITTSBURGH     PTSUNNY   65  58  78 CALM      30.03R
INDIANA*       SUNNY     63  59  88 E5        30.08S
LATROBE        SUNNY     59  59 100 CALM      30.05R
WASHINGTON CO* SUNNY     61  59  94 CALM      30.04R
$$

PAZ004>006-010>012-017>019-024>028-033>037-041-042-045-046-049>053-311300-
CENTRAL PENNSYLVANIA

CITY           SKY/WX    TMP DP  RH WIND       PRES   REMARKS
BRADFORD       PTSUNNY   60  54  80 CALM      30.06R
DUBOIS         SUNNY     61  54  77 E3        30.05R
CLEARFIELD     MOSUNNY   57  55  93 CALM      30.06R FOG
JOHNSTOWN      SUNNY     64  54  69 CALM      30.07R
ALTOONA        SUNNY     64  56  75 W3        30.06R
STATE COLLEGE  SUNNY     63  59  88 CALM      30.04R
WILLIAMSPORT   CLOUDY    63  60  90 NW5       30.02R
SELINSGROVE    CLOUDY    64  63  96 CALM      30.02R FOG
FT INDIANTOWN  MOSUNNY   67  67 100 VRB2      29.99R
CAPITAL CITY   SUNNY     71  64  78 N6        29.99S
HARRISBURG     MOSUNNY   70  65  84 NW9       29.99R
YORK           MOSUNNY   69  66  90 CALM      29.99S FOG
$$

PAZ038>040-043-044-047-048-054-055-060>062-067>071-311300-
EASTERN PENNSYLVANIA

CITY           SKY/WX    TMP DP  RH WIND       PRES   REMARKS
SCRANTON       CLOUDY    64  62  93 CALM      30.02R FOG
MOUNT POCONO   SUNNY     66  53  63 VRB5      30.02R
ALLENTOWN      SUNNY     70  63  78 NW3       29.98R
QUAKERTOWN*    MOSUNNY   72  64  78 N6        29.99S
READING          N/A     69  65  86 N3        29.97S
LANCASTER      SUNNY     70  66  87 W5        29.98S FOG
COATESVILLE    SUNNY     72  66  83 N6        30.00R
POTTSTOWN      SUNNY     71  64  78 NW3       29.99R
BLUE BELL      SUNNY     70  64  83 NW3       29.96S
DOYLESTOWN     SUNNY     71  63  75 N5        29.97R
WILLOW GROVE   NOT AVBL
NORTH PHILA    MOSUNNY   75  68  78 NW3       29.97S
PHILADELPHIA   PTSUNNY   71  67  87 S6        29.97R
$$



USA.gov is the U.S. government's official web portal to all federal, state and local government web resources and services.